Regional Weather Roundup
Issued by NWS

Home | Current Version | Previous Version | Graphics & Text | Print | Product List | Glossary On
Versions: 1 2 3 4 5 6 7 8 9 10 11 12 13 14 15 16 17 18 19 20 21 22 23 24 25 26 27 28 29 30 31 32 33 34 35 36 37 38 39 40 41 42 43 44 45 46 47 48 49 50
000
ASUS43 KIND 290909
RWRIN

WEATHER ROUNDUP FOR INDIANA
NATIONAL WEATHER SERVICE INDIANAPOLIS IN
500 AM EDT FRI MAY 29 2015

NOTE: "FAIR" INDICATES FEW OR NO CLOUDS BELOW 12,000 FEET WITH NO
SIGNIFICANT WEATHER AND/OR OBSTRUCTIONS TO VISIBILITY.

* - STATION DOES NOT REPORT WEATHER SUCH AS PRECIPITATION OR FOG.

+ - STATION NOT QUALITY CONTROLLED BY THE NATIONAL WEATHER SERVICE.
    USE DATA WITH CAUTION...ESPECIALLY DEWPOINT AND RELATIVE
    HUMIDITY OBSERVATIONS.

INZ001>003-010>013-019-020-291000-
NORTHWEST INDIANA

CITY           SKY/WX    TMP DP  RH WIND       PRES   REMARKS
GARY /AIRPORT/ PTCLDY    68  65  91 SE5       30.06F
KNOX *+        PTCLDY    64  61  88 SE3       30.08S
LA PORTE +     CLOUDY    67  62  85 E3        30.10S
MICHIGAN CITY+ CLOUDY    68  59  73 SE5       30.07F
MONTICELLO +   PTCLDY    67  64  89 S3        30.07S
RENSSELAER +   PTCLDY    68  64  88 S5        30.08S
VALPARAISO     CLOUDY    65  60  84 E3        30.08F

$$

LMZ046-743>745-291000-
SOUTHERN LAKE MICHIGAN

STATION/POSITION TIME  TEMP    WIND        PRES    WAVE
                       AIR SEA DIR/SP/G            HT
                 (UTC) (F)     (DEG/KT/KT) (MB)    (FT)
BURNS HARBOR     0900   70     170/  6/ 10 1018.6S
MICHIGAN CITY    0900   70     130/ 10/ 13   N/A
5NW MICH CITY    0900   63 55  220/  2/  2   N/A     0

$$

INZ004-005-014>016-021>024-291000-
NORTH CENTRAL INDIANA

CITY           SKY/WX    TMP DP  RH WIND       PRES   REMARKS
GOSHEN         CLEAR     63  58  83 SE6       30.11F
LOGANSPORT +   PTCLDY    63  59  88 SE5       30.10S FOG
PERU/GRISSOM   CLEAR     65  62  90 SE6       30.09S
ROCHESTER +    CLEAR     64  63  94 CALM      30.10F
SOUTH BEND     CLEAR     66  59  78 E5        30.11S
WARSAW +       CLEAR     61  61 100 CALM      30.11F

$$

INZ006>009-017-018-025>027-291000-
NORTHEAST INDIANA

CITY           SKY/WX    TMP DP  RH WIND       PRES   REMARKS
ANGOLA *+      CLEAR     61  48  63 CALM      30.14S
AUBURN +       CLEAR     59  55  88 CALM      30.14F
FORT WAYNE     PTCLDY    61  59  93 CALM      30.13F
HUNTINGTON +   CLEAR     60  59  96 CALM      30.12S FOG

$$

INZ028-029-035-036-043>045-051>053-291000-
WEST CENTRAL INDIANA

CITY           SKY/WX    TMP DP  RH WIND       PRES   REMARKS
CRAWFORDSVL +  CLEAR     63  58  84 SE3       30.09S
GREENCASTLE +  CLEAR     63  59  88 SE3       30.10S
LAFAYETTE      PTCLDY    65  62  90 CALM      30.07F
TERRE HAUTE    CLEAR     66  63  90 CALM      30.08S

$$

INZ030>032-037>040-046>048-054>057-064-065-291000-
CENTRAL INDIANA

CITY           SKY/WX    TMP DP  RH WIND       PRES   REMARKS
CP ATTERBURY + FOG       61  61 100 CALM      30.11S VSB 1/4
FRANKFORT +    CLEAR     63  63 100 E6        30.11F
GREENWOOD *+   CLEAR     66  63  88 CALM      30.11F
INDIANAPOLIS   CLEAR     68  62  81 SE6       30.08F
-EAGLE CREEK   CLEAR     64  62  93 CALM      30.10S
KOKOMO *+      CLEAR     64  61  88 S6        30.11S
MARION +       CLEAR     63  61  93 SE3       30.13S FOG
MT COMFORT *+  CLEAR     64 N/A N/A SE3       30.12S
SHELBYVILLE    CLEAR     66  62  87 SE3       30.10F
ZIONSVILLE +   CLEAR     64  60  86 SE3       30.12R

$$

INZ033-034-041-042-049-050-058-059-291000-
EAST CENTRAL INDIANA

CITY           SKY/WX    TMP DP  RH WIND       PRES   REMARKS
MUNCIE         CLEAR     64  61  90 SE3       30.13S FOG

$$

INZ060-061-067>069-081>083-085>088-291000-
SOUTHWEST INDIANA

CITY           SKY/WX    TMP DP  RH WIND       PRES   REMARKS
EVANSVILLE     CLEAR     67  64  90 CALM      30.05F
HUNTINGBURG *+ CLEAR     64  61  88 SE6       30.08S
WASHINGTON +   CLEAR     65  61  87 SE5       30.06S

$$

INZ062-063-066-070>080-084-089>092-291000-
SOUTH CENTRAL AND SOUTHEAST INDIANA

CITY           SKY/WX    TMP DP  RH WIND       PRES   REMARKS
BLOOMINGTON    CLEAR     63  61  93 SE3       30.09F
MADISON *+     PTCLDY    66  63  88 SE3       30.14S
NORTH VERNON + CLEAR     63  63 100 CALM      30.12F FOG

$$



USA.gov is the U.S. government's official web portal to all federal, state and local government web resources and services.